Flag for Canada Weather past 2 weeks in Kings County, Nova Scotia, Canada

Now
64 °F

Mild.


Feels Like: 64 °F
Forecast: 62 / 72 °F
Wind: 12 mph from Southwest

Location: McNabs Island - AUT

Current Time: Jul 24, 2014 at 1:03:30 AM

Latest Report: Jul 24, 2014 at 12:00 AM


Visibility: N/A

Pressure: 29.81 "Hg

Humidity: 79%

Dew point: 58 °F

Location of Kings CountyLocation

Historic Weather in Kings County — Graph

°F

Kings County temperature yesterday

Maximum temperature yesterday: 73 °F (at 3:00 PM)
Minimum temperature yesterday: 59 °F (at 7:00 AM)
Average temperature yesterday: 67 °F

Past Weeks' High & Low Weather Summary

 TemperatureHumidityPressure
High76 °F (Jul 19, 12:00 PM)100% (Jul 10, 1:00 PM)30.28 "Hg (Jul 10, 1:00 PM)
Low51 °F (Jul 13, 6:00 AM)11% (Jul 18, 9:00 AM)29.78 "Hg (Jul 23, 6:00 PM)
Average63 °F81%30.06 "Hg
* Reported Midnight between Jul 8 and Jul 9 — Midnight between Jul 23 and Jul 24, Kings County, Weather by CustomWeather, © 2014

Note: Actual official high and low records may vary slightly from our data, if they occured in-between our weather recording intervals... More about our weather records

Advertising

Kings County weather history for July 12, 2014

 ConditionsComfort  
Time TempWeatherWind HumidityBarometerVisibility
12:00 AM
Jul 12
61 °FCool.3 mph79%30.16 "HgN/A
1:00 AM60 °FCool.1 mph82%30.17 "HgN/A
2:00 AM59 °FCool.5 mph85%30.17 "HgN/A
3:00 AM60 °FCool.6 mph86%30.17 "HgN/A
4:00 AM58 °FCool.3 mph87%30.16 "HgN/A
5:00 AM58 °FCool.5 mph87%30.17 "HgN/A
6:00 AM56 °FCool.2 mph90%30.18 "HgN/A
7:00 AM62 °FCool.2 mph77%30.19 "HgN/A
8:00 AM60 °FCool.2 mph80%30.19 "HgN/A
9:00 AM60 °FCool.5 mph77%30.19 "HgN/A
10:00 AM62 °FCool.5 mph74%30.19 "HgN/A
11:00 AM65 °FMild.8 mph70%30.19 "HgN/A
12:00 PM68 °FMild.10 mph62%30.19 "HgN/A
1:00 PM68 °FMild.12 mph58%30.18 "HgN/A
2:00 PM68 °FMild.12 mph64%30.16 "HgN/A
3:00 PM68 °FMild.14 mph62%30.15 "HgN/A
4:00 PM67 °FMild.13 mph64%30.15 "HgN/A
5:00 PM70 °FMild.10 mph56%30.15 "HgN/A
6:00 PM68 °FMild.6 mph57%30.16 "HgN/A
7:00 PM66 °FMild.10 mph60%30.16 "HgN/A
8:00 PM66 °FMild.3 mph59%30.16 "HgN/A
9:00 PM63 °FMild.7 mph68%30.16 "HgN/A
10:00 PM61 °FCool.7 mph73%30.16 "HgN/A
11:00 PM56 °FCool.1 mph83%30.16 "HgN/A
Weather by CustomWeather, © 2014

See weather overviewHow to use our weather pages